Weather reports worldwide

Advertisment
München-Stadt, Germany (10865): temperature & dewpoint: 16.09.2019 23:00:00 - 22.09.2019 23:00:00 (CEST)München-Stadt, Germany (10865): temperature 5cm & temperature -5cm: 16.09.2019 23:00:00 - 22.09.2019 23:00:00 (CEST)München-Stadt, Germany (10865): temperature -20cm & temperature -100cm: 16.09.2019 23:00:00 - 22.09.2019 23:00:00 (CEST)München-Stadt, Germany (10865): wind speed & gusts: 16.09.2019 23:00:00 - 22.09.2019 23:00:00 (CEST)München-Stadt, Germany (10865): wind direction: 16.09.2019 23:00:00 - 22.09.2019 23:00:00 (CEST)München-Stadt, Germany (10865): reduced air pressure: 16.09.2019 23:00:00 - 22.09.2019 23:00:00 (CEST)München-Stadt, Germany (10865): visibility: 16.09.2019 23:00:00 - 22.09.2019 23:00:00 (CEST)München-Stadt, Germany (10865): sunshine duration: 16.09.2019 23:00:00 - 22.09.2019 23:00:00 (CEST)München-Stadt, Germany (10865): precipitation: 16.09.2019 23:00:00 - 22.09.2019 23:00:00 (CEST)
Date & Time tt [°C] td [°C] tt 5cm [°C] tt -5cm [°C] tt -20cm [°C] tt -100cm [°C] ff [km/h] ff [kn] fx [km/h] fx [kn] dd ppp [hPa] vv [km] sd [min] rr [mm]
22.09.2019 23:00:00 12,4 11,3 10,9 15,6 18,0 19,0 2 1 11 6 ESE 1011,1 30 0 0,0
22.09.2019 22:00:00 13,2 11,8 11,0 16,2 18,0 19,0 6 3 10 5 SE 1011,2 37 0 0,0
22.09.2019 21:00:00 14,2 11,8 12,3 16,9 18,0 19,0 5 3 13 7 ESE 1011,0 38 0 0,0
22.09.2019 20:00:00 16,9 12,3 14,6 17,9 17,9 19,0 8 5 14 8 ESE 1010,4 47 4 0,0
22.09.2019 19:00:00 17,9 12,0 16,8 19,0 17,8 19,0 7 4 11 6 NE 1010,2 47 14 0,0
22.09.2019 18:00:00 18,8 12,2 19,1 19,6 17,6 19,0 6 4 11 6 NE 1010,0 51 0 0,0
22.09.2019 17:00:00 19,2 12,1 20,8 20,3 17,4 19,0 9 5 13 7 ENE 1010,1 52 0 0,0
22.09.2019 16:00:00 19,0 10,9 22,2 20,2 17,2 19,0 5 3 9 5 E 1010,5 53 4 0,0
22.09.2019 15:00:00 17,6 11,1 19,8 19,1 17,0 19,0 6 4 10 6 ENE 1011,0 61 0 0,0
22.09.2019 14:00:00 17,3 10,4 19,8 18,8 16,8 19,0 6 3 11 6 ENE 1011,5 53 0 0,0
22.09.2019 13:00:00 16,7 9,9 18,3 17,9 16,7 19,0 4 2 8 4 ENE 1012,1 52 0 0,0
22.09.2019 12:00:00 15,4 9,1 17,8 17,0 16,6 19,0 5 3 8 4 NNE 1012,6 47 0 0,0
22.09.2019 11:00:00 14,5 8,7 17,2 16,6 16,6 19,1 5 3 8 4 NNE 1013,1 46 26 0,0
22.09.2019 10:00:00 12,6 8,4 14,7 14,7 16,7 19,1 4 2 6 3 N 1013,9 35 18 0,0
22.09.2019 09:00:00 11,1 8,4 11,7 13,4 16,8 19,1 2 1 9 5 NNE 1014,3 41 10 0,0
22.09.2019 08:00:00 8,8 7,4 8,3 12,7 17,0 19,1 0 0 5 3 N 1014,6 36 5 0,0
22.09.2019 07:00:00 8,1 7,0 7,2 12,6 17,2 19,1 5 3 9 5 S 1014,6 43 0 0,0
22.09.2019 06:00:00 8,0 7,0 6,9 12,8 17,4 19,1 4 2 8 5 SSW 1014,8 40 0 0,0
22.09.2019 05:00:00 7,8 6,6 6,9 13,1 17,6 19,1 6 4 8 4 ENE 1015,0 41 0 0,0
22.09.2019 04:00:00 8,1 6,7 7,0 13,4 17,8 19,1 4 2 6 3 ENE 1015,5 45 0 0,0
22.09.2019 03:00:00 8,7 6,9 7,2 13,8 18,0 19,1 5 3 10 6 ESE 1015,8 46 0 0,0
22.09.2019 02:00:00 9,3 7,1 7,5 14,1 18,2 19,1 7 4 10 5 E 1016,0 49 0 0,0
22.09.2019 01:00:00 9,7 7,2 8,0 14,6 18,4 19,2 6 4 9 5 E 1016,1 48 0 0,0
22.09.2019 00:00:00 10,0 7,2 8,5 15,2 18,5 19,2 7 4 9 5 ENE 1016,5 49 0 0,0
21.09.2019 23:00:00 11,2 7,4 9,6 15,8 18,7 19,2 5 3 10 5 E 1016,9 52 0 0,0
21.09.2019 22:00:00 12,3 7,3 10,2 16,5 18,8 19,2 7 4 15 8 E 1017,0 50 0 0,0
21.09.2019 21:00:00 12,9 7,8 10,6 17,3 18,9 19,2 9 5 12 7 E 1017,3 47 0 0,0
21.09.2019 20:00:00 14,7 7,5 12,0 18,5 18,8 19,2 9 5 16 8 E 1016,9 55 15 0,0
21.09.2019 19:00:00 18,2 7,3 15,8 19,9 18,6 19,2 9 5 22 12 E 1016,6 64 60 0,0
21.09.2019 18:00:00 19,7 6,6 18,4 21,5 18,3 19,2 10 5 26 14 E 1016,6 67 60 0,0
21.09.2019 17:00:00 20,3 4,4 21,0 24,4 17,8 19,2 15 8 24 13 E 1017,0 71 60 0,0
21.09.2019 16:00:00 20,5 6,3 25,5 24,8 17,3 19,3 14 8 31 17 ENE 1017,6 56 60 0,0
21.09.2019 15:00:00 19,5 6,4 27,4 24,5 16,8 19,3 13 7 24 13 ENE 1018,7 59 60 0,0
21.09.2019 14:00:00 18,5 5,6 24,1 23,7 16,3 19,3 11 6 21 11 E 1019,6 47 60 0,0
21.09.2019 13:00:00 17,4 5,4 22,3 22,1 16,0 19,3 10 5 18 10 E 1020,4 53 60 0,0
21.09.2019 12:00:00 16,1 5,4 22,8 19,7 15,9 19,3 7 4 18 10 ENE 1021,0 53 60 0,0
21.09.2019 11:00:00 13,6 4,5 19,1 16,3 15,9 19,3 7 4 15 8 E 1022,1 48 60 0,0
21.09.2019 10:00:00 11,1 3,9 14,6 12,1 16,1 19,3 10 6 16 9 SE 1022,8 40 60 0,0
21.09.2019 09:00:00 8,6 3,0 7,3 10,8 16,2 19,3 10 6 18 10 E 1023,4 58 60 0,0
21.09.2019 08:00:00 5,7 2,7 4,5 10,5 16,5 19,3 6 3 10 5 E 1023,9 45 42 0,0
21.09.2019 07:00:00 5,2 2,0 3,6 10,7 16,7 19,3 5 3 12 7 ESE 1024,1 53 0 0,0
21.09.2019 06:00:00 5,4 1,9 4,0 11,0 16,9 19,4 7 4 14 7 E 1024,1 48 0 0,0
21.09.2019 05:00:00 5,2 2,0 4,0 11,4 17,1 19,4 7 4 11 6 E 1024,3 47 0 0,0
21.09.2019 04:00:00 6,9 1,8 4,9 11,8 17,3 19,4 7 4 19 10 E 1024,5 47 0 0,0
21.09.2019 03:00:00 7,6 2,2 5,9 12,2 17,6 19,4 11 6 16 9 E 1024,8 54 0 0,0
21.09.2019 02:00:00 6,6 2,7 5,0 12,6 17,8 19,4 8 4 11 6 E 1025,7 51 0 0,0
21.09.2019 01:00:00 7,0 2,8 5,5 13,2 18,0 19,4 7 4 13 7 E 1026,2 52 0 0,0
21.09.2019 00:00:00 8,2 2,6 6,8 13,8 18,2 19,4 8 4 14 8 E 1026,1 47 0 0,0
20.09.2019 23:00:00 10,1 2,9 8,0 14,4 18,4 19,4 10 5 14 8 E 1026,2 49 0 0,0
20.09.2019 22:00:00 9,8 3,4 8,2 15,0 18,5 19,5 9 5 12 7 E 1026,4 53 0 0,0
20.09.2019 21:00:00 10,2 3,6 8,7 15,8 18,6 19,5 8 4 12 6 E 1026,6 52 0 0,0
20.09.2019 20:00:00 11,5 3,1 9,7 16,9 18,6 19,5 8 4 15 8 E 1026,5 47 9 0,0
20.09.2019 19:00:00 13,9 2,7 12,2 18,2 18,5 19,5 9 5 23 12 E 1025,9 51 37 0,0
20.09.2019 18:00:00 15,1 1,8 14,9 19,6 18,3 19,5 10 6 22 12 ENE 1025,7 56 42 0,0
20.09.2019 17:00:00 15,6 1,2 17,3 21,3 17,9 19,5 12 7 23 12 NE 1025,5 62 60 0,0
20.09.2019 16:00:00 16,3 1,4 20,6 22,2 17,5 19,5 13 7 25 13 ENE 1025,7 63 60 0,0
20.09.2019 15:00:00 16,2 2,2 22,5 22,4 17,1 19,5 16 8 30 16 NE 1026,1 46 60 0,0
20.09.2019 14:00:00 15,2 0,8 21,1 22,0 16,8 19,5 14 8 26 14 E 1026,8 59 60 0,0
20.09.2019 13:00:00 14,4 2,5 20,8 21,2 16,5 19,5 16 9 28 15 ENE 1027,4 63 60 0,0
20.09.2019 12:00:00 13,1 3,7 20,4 19,1 16,3 19,5 12 6 23 12 NE 1028,0 34 60 0,0
20.09.2019 11:00:00 11,5 2,7 17,9 16,3 16,4 19,5 8 4 23 13 ENE 1028,6 46 60 0,0
20.09.2019 10:00:00 9,8 3,0 14,9 13,1 16,5 19,5 8 5 16 8 E 1029,0 41 58 0,0
20.09.2019 09:00:00 7,3 2,8 8,0 11,1 16,7 19,6 9 5 15 8 E 1029,4 47 58 0,0
20.09.2019 08:00:00 4,9 3,0 4,2 10,5 17,0 19,6 4 2 8 4 E 1029,6 43 18 0,0
20.09.2019 07:00:00 3,5 2,0 2,2 10,7 17,2 19,6 6 3 8 5 ENE 1029,5 37 0 0,0
20.09.2019 06:00:00 4,0 2,1 2,7 11,0 17,5 19,6 5 3 11 6 E 1029,3 46 0 0,0
20.09.2019 05:00:00 3,9 2,2 2,7 11,4 17,7 19,6 6 3 8 4 NE 1029,4 47 0 0,0
20.09.2019 04:00:00 4,4 2,4 3,0 11,9 18,0 19,6 4 2 5 3 NE 1029,4 49 0 0,0
20.09.2019 03:00:00 5,0 2,6 3,2 12,4 18,3 19,6 3 2 7 4 ENE 1029,6 51 0 0,0
20.09.2019 02:00:00 5,5 2,4 4,1 12,9 18,5 19,6 5 3 10 5 ENE 1030,1 47 0 0,0
20.09.2019 01:00:00 6,7 1,9 5,0 13,5 18,8 19,6 6 4 13 7 ENE 1030,2 58 0 0,0
20.09.2019 00:00:00 8,3 1,9 5,8 14,1 19,0 19,6 9 5 14 8 ENE 1030,0 52 0 0,0
19.09.2019 23:00:00 9,3 1,3 6,8 14,7 19,2 19,6 11 6 21 12 ENE 1029,5 49 0 0,0
19.09.2019 22:00:00 10,1 1,1 7,9 15,5 19,4 19,6 14 7 23 13 NE 1029,3 59 0 0,0
19.09.2019 21:00:00 10,7 1,0 8,1 16,4 19,6 19,7 9 5 19 10 NE 1028,4 57 0 0,0
19.09.2019 20:00:00 12,0 1,5 9,9 17,5 19,6 19,7 12 7 22 12 NE 1027,7 67 16 0,0
19.09.2019 19:00:00 13,3 2,0 11,7 19,0 19,5 19,7 11 6 24 13 NNE 1027,1 67 60 0,0
19.09.2019 18:00:00 14,4 1,7 13,8 21,0 19,2 19,7 12 7 22 12 NE 1026,7 60 60 0,0
19.09.2019 17:00:00 15,2 0,7 18,0 23,6 18,9 19,7 11 6 20 11 NE 1026,2 60 60 0,0
19.09.2019 16:00:00 15,7 1,0 20,5 24,1 18,5 19,7 11 6 26 14 E 1026,3 50 60 0,0
19.09.2019 15:00:00 14,6 0,9 19,4 24,0 18,1 19,7 16 9 25 14 NE 1026,7 63 57 0,0
19.09.2019 14:00:00 15,0 2,1 19,8 23,2 17,7 19,7 12 7 24 13 NE 1026,5 56 44 0,0
19.09.2019 13:00:00 15,1 2,2 21,4 22,7 17,4 19,7 9 5 23 12 NNE 1026,7 36 56 0,0
19.09.2019 12:00:00 13,8 2,8 22,2 20,6 17,3 19,7 10 6 22 12 ENE 1027,1 44 60 0,0
19.09.2019 11:00:00 12,5 3,4 18,6 17,9 17,3 19,7 13 7 22 12 ENE 1027,5 46 60 0,0
19.09.2019 10:00:00 10,3 2,4 15,5 15,0 17,4 19,7 15 8 22 12 NE 1027,8 42 60 0,0
19.09.2019 09:00:00 8,5 2,8 9,4 12,3 17,7 19,7 9 5 20 11 ENE 1027,8 46 53 0,0
19.09.2019 08:00:00 6,7 3,7 5,7 11,7 17,9 19,7 7 4 12 6 NE 1027,5 48 5 0,0
19.09.2019 07:00:00 5,7 3,7 4,6 11,9 18,1 19,7 4 2 7 4 N 1027,2 42 0 0,0
19.09.2019 06:00:00 5,9 4,1 4,9 12,1 18,4 19,7 5 3 10 6 N 1026,8 48 0 0,0
19.09.2019 05:00:00 5,5 4,4 3,9 12,4 18,7 19,7 6 4 8 5 N 1026,7 42 0 0,0
19.09.2019 04:00:00 5,8 4,4 4,5 12,8 19,0 19,7 5 3 7 4 NW 1026,6 51 0 0,0
19.09.2019 03:00:00 6,2 4,5 4,9 13,3 19,2 19,7 4 2 7 4 WNW 1026,5 45 0 0,0
19.09.2019 02:00:00 7,3 5,3 5,6 13,8 19,5 19,7 6 3 9 5 WSW 1026,5 48 0 0,0
19.09.2019 01:00:00 6,9 4,5 5,6 14,3 19,8 19,7 4 2 5 3 N 1026,6 49 0 0,0
19.09.2019 00:00:00 7,9 4,1 6,3 15,0 20,1 19,7 0 0 7 4 N 1026,1 42 0 0,0
18.09.2019 23:00:00 8,3 3,8 6,6 15,7 20,3 19,7 6 3 9 5 NNE 1025,7 55 0 0,0
18.09.2019 22:00:00 9,1 3,9 7,6 16,5 20,5 19,7 5 3 7 4 E 1025,3 56 0 0,0
18.09.2019 21:00:00 10,7 3,0 8,6 17,5 20,7 19,7 6 3 11 6 ENE 1024,9 51 0 0,0
18.09.2019 20:00:00 12,0 2,1 10,1 18,8 20,7 19,7 7 4 13 7 ENE 1023,8 57 21 0,0
18.09.2019 19:00:00 14,5 2,5 12,7 20,3 20,6 19,7 7 4 16 8 NE 1022,9 62 60 0,0
18.09.2019 18:00:00 15,7 2,0 15,0 22,5 20,4 19,7 10 6 19 11 NNE 1022,4 50 60 0,0
18.09.2019 17:00:00 16,4 1,1 21,3 25,1 20,0 19,7 10 6 21 11 NE 1022,4 65 60 0,0
18.09.2019 16:00:00 16,8 2,7 23,2 25,6 19,6 19,7 8 4 22 12 N 1022,5 49 60 0,0
18.09.2019 15:00:00 15,7 3,6 23,3 25,6 19,2 19,7 11 6 23 13 NNE 1022,9 47 60 0,0
18.09.2019 14:00:00 15,2 3,7 22,3 25,1 18,8 19,7 10 5 19 11 NE 1023,3 42 60 0,0
18.09.2019 13:00:00 15,0 4,9 22,0 23,8 18,5 19,7 10 5 19 10 NE 1023,9 47 60 0,0
18.09.2019 12:00:00 13,7 4,2 20,1 21,6 18,4 19,7 10 5 22 12 ENE 1024,4 30 60 0,0
18.09.2019 11:00:00 13,3 4,2 18,9 19,3 18,4 19,7 10 6 20 11 ENE 1024,6 43 60 0,0
18.09.2019 10:00:00 11,7 4,2 16,7 16,6 18,6 19,7 10 5 17 9 ENE 1024,8 51 60 0,0
18.09.2019 09:00:00 10,3 4,4 13,7 13,8 18,8 19,7 8 5 16 9 NE 1024,9 47 60 0,0
18.09.2019 08:00:00 8,6 5,7 7,4 13,1 19,1 19,7 7 4 13 7 NE 1025,0 50 23 0,0
18.09.2019 07:00:00 7,7 5,5 5,9 13,4 19,4 19,7 5 3 10 5 N 1025,0 43 0 0,0
18.09.2019 06:00:00 8,2 6,0 6,3 13,9 19,6 19,7 6 3 11 6 N 1024,5 38 0 0,0
18.09.2019 05:00:00 9,2 6,6 7,4 14,4 19,9 19,7 8 4 12 6 NNW 1024,0 38 0 0,0
18.09.2019 04:00:00 9,5 7,3 7,9 14,9 20,1 19,6 6 3 9 5 WNW 1023,6 35 0 0,0
18.09.2019 03:00:00 10,6 7,7 8,5 15,4 20,4 19,6 6 3 10 6 W 1022,9 36 0 0,0
18.09.2019 02:00:00 11,2 8,5 9,0 15,9 20,7 19,6 7 4 11 6 W 1022,7 36 0 0,0
18.09.2019 01:00:00 11,9 8,7 10,0 16,5 20,9 19,6 6 3 11 6 W 1022,4 31 0 0,0
18.09.2019 00:00:00 12,6 9,7 10,9 17,0 21,2 19,6 6 4 13 7 WSW 1021,6 31 0 0,0
17.09.2019 23:00:00 13,3 10,2 11,4 17,7 21,4 19,6 10 5 17 9 NW 1021,1 34 0 0,0
17.09.2019 22:00:00 13,8 10,6 11,7 18,5 21,6 19,6 6 3 12 7 W 1020,4 39 0 0,0
17.09.2019 21:00:00 14,9 10,7 13,0 19,4 21,7 19,6 7 4 21 12 W 1019,4 50 0 0,0
17.09.2019 20:00:00 16,1 10,8 14,2 20,4 21,8 19,6 10 6 24 13 NW 1018,5 45 17 0,0
17.09.2019 19:00:00 17,7 10,9 16,5 21,7 21,8 19,6 16 9 29 16 NW 1017,5 60 60 0,0
17.09.2019 18:00:00 18,7 11,3 18,2 23,4 21,7 19,6 18 10 33 18 NW 1016,9 61 59 0,0
17.09.2019 17:00:00 19,2 11,1 21,8 24,6 21,5 19,6 16 9 36 19 NW 1016,7 75 32 0,0
17.09.2019 16:00:00 18,6 12,1 21,1 24,3 21,3 19,6 18 10 31 17 NW 1017,2 42 1 0,0
17.09.2019 15:00:00 19,4 11,9 22,3 25,7 21,0 19,5 16 9 33 18 NW 1017,2 42 23 0,0
17.09.2019 14:00:00 20,6 12,0 28,6 25,7 20,7 19,5 14 8 31 17 NW 1016,9 46 40 0,0
17.09.2019 13:00:00 19,6 12,4 23,7 25,0 20,5 19,5 15 8 28 15 NNW 1017,6 40 33 0,0
17.09.2019 12:00:00 19,6 11,9 25,1 24,7 20,4 19,5 14 8 29 15 NW 1017,7 33 59 0,0
17.09.2019 11:00:00 18,5 12,0 23,4 21,4 20,5 19,5 10 6 20 11 NW 1017,9 45 25 0,0
17.09.2019 10:00:00 17,6 11,1 19,2 19,8 20,6 19,5 9 5 14 8 W 1018,0 44 9 0,0
17.09.2019 09:00:00 16,7 12,3 17,4 18,7 20,7 19,5 6 4 9 5 W 1018,0 39 1 0,0
17.09.2019 08:00:00 16,1 11,9 15,1 18,4 20,9 19,5 4 2 7 4 WSW 1018,0 32 0 0,1
17.09.2019 07:00:00 15,9 11,7 15,1 18,5 21,1 19,5 6 3 10 5 N 1017,8 41 0 0,0
17.09.2019 06:00:00 15,9 11,8 14,3 18,7 21,3 19,5 5 3 14 7 WNW 1017,7 42 0 0,0
17.09.2019 05:00:00 16,6 11,7 15,2 19,1 21,4 19,5 7 4 11 6 W 1017,2 49 0 0,0
17.09.2019 04:00:00 16,8 11,7 15,5 19,4 21,6 19,4 6 3 10 5 W 1017,3 59 0 0,0
17.09.2019 03:00:00 17,3 11,7 15,9 19,9 21,8 19,4 6 3 9 5 W 1017,2 55 0 0,0
17.09.2019 02:00:00 18,0 12,2 17,2 20,4 21,9 19,4 6 3 9 5 W 1017,3 60 0 0,0
17.09.2019 01:00:00 18,4 12,1 17,3 20,8 22,1 19,4 6 3 9 5 WNW 1017,4 47 0 0,0
17.09.2019 00:00:00 19,2 12,1 17,8 21,3 22,2 19,4 6 4 10 5 WNW 1017,4 55 0 0,0
16.09.2019 23:00:00 20,0 11,6 18,6 21,9 22,3 19,4 6 4 14 7 NW 1017,5 59 0 0,0

tt = temperature
td = dewpoint
tt 5cm = temperature 5cm
tt -5cm = temperature -5cm
tt -20cm = temperature -20cm
tt -100cm = temperature -100cm
ff = wind speed
fx = gusts
dd = wind direction
ppp = reduced air pressure
vv = visibility
sd = sunshine duration
rr = precipitation

Next stations